Regional Weather Roundup
Issued by NWS

Home | Current Version | Previous Version | Graphics & Text | Print | Product List | Glossary On
Versions: 1 2 3 4 5 6 7 8 9 10 11 12 13 14 15 16 17 18 19 20 21 22 23 24 25 26 27 28 29 30 31 32 33 34 35 36 37 38 39 40 41 42 43 44 45 46 47 48 49 50
000
ASUS43 KTOP 230908
RWRKS

WEATHER ROUNDUP FOR KANSAS
NATIONAL WEATHER SERVICE GOODLAND KS
400 AM CDT SAT SEP 23 2017

NOTE:  "FAIR" INDICATES FEW OR NO CLOUDS BELOW 12,000 FEET WITH NO
SIGNIFICANT WEATHER AND/OR OBSTRUCTIONS TO VISIBILITY.

KSZ001>006-013>018-027>032-041>047-231000-
NORTHWEST KANSAS

CITY           SKY/WX    TMP DP  RH WIND       PRES   REMARKS
GOODLAND       PTCLDY    70  62  76 S12       29.85R
HAYS           PTCLDY    73  65  75 S14       29.87S
HILL CITY      CLEAR     75  66  73 S13G20    29.85R
RUSSELL        PTCLDY    74  65  73 S16       29.86S
$$

KSZ061>065-074>080-084>089-231000-
SOUTHWEST KANSAS

CITY           SKY/WX    TMP DP  RH WIND       PRES   REMARKS
DODGE CITY     CLEAR     73  64  73 S21       29.89S
ELKHART          N/A     65  63  94 S12         N/A
GARDEN CITY    CLEAR     69  64  84 S10       29.88S
GREAT BEND     PTCLDY    74  65  73 S20       29.89R
LIBERAL        CLEAR     69  64  84 S10       29.89S
PRATT          CLEAR     72  63  73 S15       29.91S
$$

KSZ066>073-081>083-090>101-231000-
SOUTHEAST KANSAS

CITY           SKY/WX    TMP DP  RH WIND       PRES   REMARKS
CHANUTE        CLEAR     71  67  87 SE7       29.96S
COFFEYVILLE    CLEAR     71  66  84 SE3       29.95R
HUTCHINSON     PTCLDY    74  66  76 S13       29.91S
MEDICINE LODGE   N/A     73  64  73 S9        29.91S
NEWTON         PTCLDY    72  65  78 S12       29.94S
PARSONS        CLEAR     72  66  81 CALM      29.97R
WICHITA INTL   PTCLDY    72  66  81 S9        29.92S
WICHITA JABRA  CLEAR     72  67  84 S10       29.93S
WICHITA MCCONL PTCLDY    73  65  75 S9        29.93S
WINFIELD       CLEAR     73  66  78 S9        29.95R
$$

KSZ007>012-019>026-033>040-048>060-102>105-231000-
NORTHEAST KANSAS

CITY           SKY/WX    TMP DP  RH WIND       PRES   REMARKS
CONCORDIA      CLEAR     71  68  90 S10       29.90R
EMPORIA        CLEAR     68  65  90 SE5       29.95R
LAWRENCE       PTCLDY    69  68  96 E7        29.96R
MANHATTAN      CLEAR     74  67  78 SW3       29.92S
MARYSVILLE     CLEAR     72  68  88 SE7       29.92S
OLATHE IND     CLEAR     70  66  87 S6        29.98R
OLATHE EXE     CLEAR     68  68 100 SE3       29.98R
SALINA         PTCLDY    77  66  68 S13       29.90S
TOPEKA BILLARD CLEAR     70  68  93 E5        29.94S
TOPEKA FORBES  CLEAR     72  68  87 SE6       29.95S
$$




USA.gov is the U.S. government's official web portal to all federal, state and local government web resources and services.